{"data":{"norad_id":66596,"epoch":"2026-05-24T22:34:34.599936Z","epoch_age_seconds":76047,"freshness":"FRESH","line1":"1 66596U 25270J   26144.94067824  .00012880  00000+0  47657-3 0  9995","line2":"2 66596  43.0028 345.8924 0001352 278.1192  81.9506 15.27593658 29479","mean_motion":15.27593658,"eccentricity":0.0001352,"inclination_deg":43.0028,"raan_deg":345.8924,"arg_perigee_deg":278.1192,"mean_anomaly_deg":81.9506,"bstar":0.00047657,"rev_number":2947,"period_min":94.265905887913,"perigee_km":482.08057254797,"apogee_km":483.93582620988,"semimajor_km":6861.1451993789,"source":"CELESTRAK","updated_at":"2026-05-25T13:38:21.288518Z"}}